START_TIME,STEP,MOV.,M15,t_acc.,M20,t_acc.
1986-01-26 15:00:45.180 ,0,0,0.,24.0,0.,24.0
1986-01-26 15:01:09.180 ,1,1,0.,24.0,0.,24.0
1986-01-26 15:01:33.180 ,1,0,0.,24.0,0.,24.0
1986-01-26 15:01:57.180 ,2,1,0.,24.0,0.,24.0
1986-01-26 15:02:21.180 ,2,0,0.,24.0,0.,24.0
1986-01-26 15:02:45.180 ,3,1,0.,24.0,0.,24.0
1986-01-26 15:03:09.180 ,3,0,0.,24.0,0.,24.0
1986-01-26 15:03:33.180 ,4,1,0.,24.0,0.,24.0
1986-01-26 15:03:57.180 ,4,0,0.,24.0,0.,24.0
1986-01-26 15:04:21.180 ,5,1,0.,24.0,0.,24.0
1986-01-26 15:04:45.180 ,5,0,1.,24.0,0.,24.0
1986-01-26 15:05:09.180 ,6,1,0.,24.0,0.,24.0
1986-01-26 15:05:33.180 ,6,0,0.,24.0,0.,24.0
1986-01-26 15:05:57.180 ,7,1,1.,24.0,0.,24.0
1986-01-26 15:06:21.180 ,7,0,0.,24.0,0.,24.0
1986-01-26 15:06:45.180 ,7,1,0.,24.0,0.,24.0
1986-01-26 15:07:09.180 ,7,0,0.,24.0,0.,24.0
1986-01-26 15:07:33.180 ,6,1,0.,24.0,0.,24.0
1986-01-26 15:07:57.180 ,0,0,,0,,0
1986-01-26 15:12:31.980 ,0,0,0.,24.0,0.,24.0
1986-01-26 15:12:45.180 ,0,0,0.,24.0,0.,24.0
1986-01-26 15:13:09.180 ,0,1,0.,24.0,0.,24.0
1986-01-26 15:13:33.180 ,0,0,0.,24.0,0.,24.0
1986-01-26 15:13:57.180 ,1,1,0.,24.0,0.,24.0
1986-01-26 15:14:21.180 ,1,0,0.,24.0,0.,24.0
1986-01-26 15:14:45.180 ,2,1,0.,24.0,0.,24.0
1986-01-26 15:15:09.180 ,2,0,0.,24.0,0.,24.0
1986-01-26 15:15:33.180 ,3,1,0.,24.0,0.,24.0
1986-01-26 15:15:57.180 ,3,0,0.,24.0,0.,24.0
1986-01-26 15:16:21.180 ,4,1,0.,24.0,0.,24.0
1986-01-26 15:16:45.180 ,4,0,0.,24.0,0.,24.0
1986-01-26 15:17:09.180 ,0,0,,0,,0
1986-01-26 15:17:33.180 ,0,0,,0,,0
1986-01-26 15:17:33.180 ,5,0,0.,24.0,0.,24.0
1986-01-26 15:17:57.180 ,6,1,0.,24.0,0.,24.0
1986-01-26 15:18:21.180 ,6,0,0.,24.0,0.,24.0
1986-01-26 15:18:45.180 ,7,1,0.,24.0,0.,24.0
1986-01-26 15:19:09.180 ,7,0,0.,24.0,0.,24.0
1986-01-26 15:19:33.180 ,7,1,0.,24.0,0.,24.0
1986-01-26 15:19:57.180 ,7,0,0.,24.0,0.,24.0
1986-01-26 15:20:21.180 ,6,1,0.,24.0,0.,24.0
1986-01-26 15:20:45.180 ,6,0,1.,24.0,0.,24.0
1986-01-26 15:21:09.180 ,5,1,0.,24.0,0.,24.0
1986-01-26 15:21:33.180 ,5,0,0.,24.0,0.,24.0
1986-01-26 15:21:57.180 ,4,1,1.,24.0,0.,24.0
1986-01-26 15:22:21.180 ,4,0,0.,24.0,0.,24.0
1986-01-26 15:22:45.180 ,3,1,0.,24.0,0.,24.0
1986-01-26 15:23:09.180 ,3,0,0.,24.0,0.,24.0
1986-01-26 15:23:33.180 ,2,1,0.,24.0,0.,24.0
1986-01-26 15:23:57.180 ,2,0,0.,24.0,0.,24.0
1986-01-26 15:24:21.180 ,1,1,0.,24.0,0.,24.0
1986-01-26 15:24:45.180 ,1,0,0.,24.0,0.,24.0
1986-01-26 15:25:09.180 ,0,1,0.,24.0,0.,24.0
1986-01-26 15:25:33.180 ,0,0,0.,24.0,0.,24.0
1986-01-26 15:25:57.180 ,0,1,0.,24.0,0.,24.0
1986-01-26 15:26:21.180 ,0,0,0.,24.0,0.,24.0
1986-01-26 15:26:45.180 ,1,1,0.,24.0,0.,24.0
1986-01-26 15:27:09.180 ,1,0,0.,24.0,0.,24.0
1986-01-26 15:27:33.180 ,2,1,0.,24.0,0.,24.0
1986-01-26 15:27:57.180 ,2,0,0.,24.0,0.,24.0
1986-01-26 15:28:21.180 ,3,1,0.,24.0,0.,24.0
1986-01-26 15:28:45.180 ,3,0,0.,24.0,0.,24.0
1986-01-26 15:29:09.180 ,4,1,1.,24.0,0.,24.0
1986-01-26 15:29:33.180 ,4,0,0.,24.0,0.,24.0
1986-01-26 15:29:57.180 ,5,1,0.,24.0,0.,24.0
1986-01-26 15:30:21.180 ,5,0,0.,24.0,0.,24.0
1986-01-26 15:30:45.180 ,6,1,0.,24.0,0.,24.0
1986-01-26 15:31:09.180 ,6,0,0.,24.0,0.,24.0
1986-01-26 15:31:33.180 ,7,1,0.,24.0,0.,24.0
1986-01-26 15:31:57.180 ,7,0,1.,24.0,0.,24.0
1986-01-26 15:32:21.180 ,7,1,0.,24.0,0.,24.0
1986-01-26 15:32:45.180 ,7,0,0.,24.0,0.,24.0
1986-01-26 15:33:09.180 ,6,1,0.,24.0,0.,24.0
1986-01-26 15:33:33.180 ,6,0,0.,24.0,0.,24.0
1986-01-26 15:33:57.180 ,5,1,0.,24.0,0.,24.0
1986-01-26 15:34:21.180 ,5,0,0.,24.0,0.,24.0
1986-01-26 15:34:45.180 ,4,1,0.,24.0,0.,24.0
1986-01-26 15:35:09.180 ,4,0,0.,24.0,0.,24.0
1986-01-26 15:35:33.180 ,3,1,0.,24.0,0.,24.0
1986-01-26 15:35:57.180 ,3,0,0.,24.0,0.,24.0
1986-01-26 15:36:21.180 ,2,1,0.,24.0,0.,24.0
1986-01-26 15:36:45.180 ,2,0,0.,24.0,0.,24.0
1986-01-26 15:37:09.180 ,1,1,1.,24.0,0.,24.0
1986-01-26 15:37:33.180 ,1,0,0.,24.0,0.,24.0
1986-01-26 15:37:57.180 ,0,1,1.,24.0,0.,24.0
1986-01-26 15:38:21.180 ,0,0,0.,24.0,0.,24.0
1986-01-26 15:38:45.180 ,0,1,0.,24.0,0.,24.0
1986-01-26 15:39:09.180 ,0,0,0.,24.0,0.,24.0
1986-01-26 15:39:33.180 ,1,1,0.,24.0,0.,24.0
1986-01-26 15:39:57.180 ,1,0,0.,24.0,0.,24.0
1986-01-26 15:40:21.180 ,2,1,0.,24.0,0.,24.0
1986-01-26 15:40:45.180 ,2,0,0.,24.0,0.,24.0
1986-01-26 15:41:09.180 ,3,1,0.,24.0,0.,24.0
1986-01-26 15:41:33.180 ,3,0,0.,24.0,0.,24.0
1986-01-26 15:41:57.180 ,4,1,0.,24.0,0.,24.0
1986-01-26 15:42:21.180 ,4,0,1.,24.0,0.,24.0
1986-01-26 15:42:45.180 ,5,1,0.,24.0,0.,24.0
1986-01-26 15:43:09.180 ,5,0,0.,24.0,0.,24.0
1986-01-26 15:43:33.180 ,6,1,0.,24.0,0.,24.0
1986-01-26 15:43:57.180 ,6,0,1.,24.0,0.,24.0
1986-01-26 15:44:21.180 ,7,1,0.,24.0,0.,24.0
1986-01-26 15:44:45.180 ,7,0,0.,24.0,0.,24.0
1986-01-26 15:45:09.180 ,7,1,0.,24.0,0.,24.0
1986-01-26 15:45:33.180 ,7,0,0.,24.0,0.,24.0
1986-01-26 15:45:57.180 ,6,1,0.,24.0,0.,24.0
1986-01-26 15:46:21.180 ,0,0,,0,,0
1986-01-26 15:46:41.580 ,0,0,,0,,0
1986-01-26 15:46:43.380 ,0,0,,0,,0
1986-01-26 15:46:45.180 ,5,1,0.,24.0,0.,24.0
1986-01-26 15:47:09.180 ,0,0,,0,,0
1986-01-26 15:47:18.780 ,0,0,1.,24.0,0.,24.0
1986-01-26 15:47:33.180 ,4,1,0.,24.0,0.,24.0
1986-01-26 15:47:57.180 ,4,0,1.,24.0,0.,24.0
1986-01-26 15:48:21.180 ,3,1,0.,24.0,0.,24.0
1986-01-26 15:48:45.180 ,3,0,0.,24.0,0.,24.0
1986-01-26 15:49:09.180 ,2,1,0.,24.0,0.,24.0
1986-01-26 15:49:33.180 ,2,0,0.,24.0,0.,24.0
1986-01-26 15:49:57.180 ,1,1,1.,24.0,0.,24.0
1986-01-26 15:50:21.180 ,1,0,0.,24.0,0.,24.0
1986-01-26 15:50:45.180 ,0,1,0.,24.0,0.,24.0
1986-01-26 15:51:09.180 ,0,0,0.,24.0,0.,24.0
1986-01-26 15:51:33.180 ,0,1,0.,24.0,0.,24.0
1986-01-26 15:51:57.180 ,0,0,1.,24.0,0.,24.0
1986-01-26 15:52:21.180 ,1,1,0.,24.0,0.,24.0
1986-01-26 15:52:45.180 ,1,0,1.,24.0,0.,24.0
1986-01-26 15:53:09.180 ,2,1,0.,24.0,0.,24.0
1986-01-26 15:53:33.180 ,2,0,0.,24.0,0.,24.0
1986-01-26 15:53:57.180 ,3,1,1.,24.0,0.,24.0
1986-01-26 15:54:21.180 ,3,0,0.,24.0,0.,24.0
1986-01-26 15:54:45.180 ,4,1,0.,24.0,0.,24.0
1986-01-26 15:55:09.180 ,4,0,0.,24.0,0.,24.0
1986-01-26 15:55:33.180 ,5,1,0.,24.0,0.,24.0
1986-01-26 15:55:57.180 ,5,0,0.,24.0,0.,24.0
1986-01-26 15:56:21.180 ,6,1,1.,24.0,0.,24.0
1986-01-26 15:56:45.180 ,6,0,0.,24.0,0.,24.0
1986-01-26 15:57:09.180 ,7,1,0.,24.0,0.,24.0
1986-01-26 15:57:33.180 ,7,0,0.,24.0,0.,24.0
1986-01-26 15:57:57.180 ,7,1,0.,24.0,0.,24.0
1986-01-26 15:58:21.180 ,7,0,0.,24.0,0.,24.0
1986-01-26 15:58:45.180 ,6,1,0.,24.0,0.,24.0
1986-01-26 15:59:09.180 ,6,0,0.,24.0,0.,24.0
1986-01-26 15:59:33.180 ,5,1,0.,24.0,0.,24.0
1986-01-26 15:59:57.180 ,5,0,0.,24.0,0.,24.0
1986-01-26 16:00:21.180 ,4,1,0.,24.0,0.,24.0
1986-01-26 16:00:45.180 ,4,0,0.,24.0,0.,24.0
1986-01-26 16:01:09.180 ,3,1,0.,24.0,0.,24.0
1986-01-26 16:01:33.180 ,3,0,1.,24.0,0.,24.0
1986-01-26 16:01:57.180 ,2,1,1.,24.0,0.,24.0
1986-01-26 16:02:21.180 ,2,0,0.,24.0,0.,24.0
1986-01-26 16:02:45.180 ,1,1,0.,24.0,0.,24.0
1986-01-26 16:03:09.180 ,1,0,0.,24.0,0.,24.0
1986-01-26 16:03:33.180 ,0,1,1.,24.0,0.,24.0
1986-01-26 16:03:57.180 ,0,0,0.,24.0,0.,24.0
1986-01-26 16:04:21.180 ,0,1,0.,24.0,0.,24.0
1986-01-26 16:04:45.180 ,0,0,0.,24.0,0.,24.0
1986-01-26 16:05:09.180 ,1,1,1.,24.0,0.,24.0
1986-01-26 16:05:33.180 ,1,0,0.,24.0,0.,24.0
1986-01-26 16:05:57.180 ,2,1,0.,24.0,0.,24.0
1986-01-26 16:06:21.180 ,2,0,1.,24.0,0.,24.0
1986-01-26 16:06:45.180 ,3,1,0.,24.0,0.,24.0
1986-01-26 16:07:09.180 ,3,0,0.,24.0,0.,24.0
1986-01-26 16:07:33.180 ,4,1,1.,24.0,0.,24.0
1986-01-26 16:07:57.180 ,4,0,0.,24.0,0.,24.0
1986-01-26 16:08:21.180 ,5,1,0.,24.0,0.,24.0
1986-01-26 16:08:45.180 ,5,0,0.,24.0,0.,24.0
1986-01-26 16:09:09.180 ,6,1,0.,24.0,0.,24.0
1986-01-26 16:09:33.180 ,6,0,0.,24.0,0.,24.0
1986-01-26 16:09:57.180 ,7,1,0.,24.0,0.,24.0
1986-01-26 16:10:21.180 ,7,0,0.,24.0,0.,24.0
1986-01-26 16:10:45.180 ,7,1,0.,24.0,0.,24.0
1986-01-26 16:11:09.180 ,7,0,0.,24.0,0.,24.0
1986-01-26 16:11:33.180 ,6,1,1.,24.0,0.,24.0
1986-01-26 16:11:57.180 ,6,0,0.,24.0,0.,24.0
1986-01-26 16:12:21.180 ,5,1,0.,24.0,0.,24.0
1986-01-26 16:12:45.180 ,5,0,0.,24.0,0.,24.0
1986-01-26 16:13:09.180 ,4,1,0.,24.0,0.,24.0
1986-01-26 16:13:33.180 ,4,0,1.,24.0,0.,24.0
1986-01-26 16:13:57.180 ,3,1,0.,24.0,0.,24.0
1986-01-26 16:14:21.180 ,3,0,0.,24.0,0.,24.0
1986-01-26 16:14:45.180 ,2,1,1.,24.0,0.,24.0
1986-01-26 16:15:09.180 ,2,0,0.,24.0,0.,24.0
1986-01-26 16:15:33.180 ,1,1,0.,24.0,0.,24.0
1986-01-26 16:15:57.180 ,1,0,0.,24.0,0.,24.0
1986-01-26 16:16:21.180 ,0,1,0.,24.0,0.,24.0
1986-01-26 16:16:45.180 ,0,0,0.,24.0,0.,24.0
1986-01-26 16:17:09.180 ,0,1,0.,24.0,0.,24.0
1986-01-26 16:17:33.180 ,0,0,0.,24.0,0.,24.0
1986-01-26 16:17:57.180 ,1,1,0.,24.0,0.,24.0
1986-01-26 16:18:21.180 ,1,0,0.,24.0,0.,24.0
1986-01-26 16:18:45.180 ,2,1,0.,24.0,0.,24.0
1986-01-26 16:19:09.180 ,2,0,0.,24.0,0.,24.0
1986-01-26 16:19:33.180 ,3,1,0.,24.0,0.,24.0
1986-01-26 16:19:57.180 ,3,0,0.,24.0,0.,24.0
1986-01-26 16:20:21.180 ,4,1,0.,24.0,0.,24.0
1986-01-26 16:20:45.180 ,4,0,0.,24.0,0.,24.0
1986-01-26 16:21:09.180 ,5,1,0.,24.0,0.,24.0
1986-01-26 16:21:33.180 ,5,0,0.,24.0,0.,24.0
1986-01-26 16:21:57.180 ,6,1,0.,24.0,0.,24.0
1986-01-26 16:22:21.180 ,0,0,0.,24.0,0.,24.0
1986-01-26 16:25:18.180 ,0,0,0.,24.0,0.,24.0
1986-01-26 16:25:33.180 ,0,0,1.,24.0,0.,24.0
1986-01-26 16:25:57.180 ,4,1,1.,24.0,0.,24.0
1986-01-26 16:26:21.180 ,4,0,0.,24.0,0.,24.0
1986-01-26 16:26:45.180 ,3,1,0.,24.0,0.,24.0
1986-01-26 16:27:09.180 ,3,0,0.,24.0,0.,24.0
1986-01-26 16:27:33.180 ,2,1,0.,24.0,0.,24.0
1986-01-26 16:27:57.180 ,2,0,0.,24.0,0.,24.0
1986-01-26 16:28:21.180 ,0,0,,0,,0
1986-01-26 16:28:45.180 ,0,0,,0,,0
1986-01-26 16:28:45.180 ,1,0,0.,24.0,0.,24.0
1986-01-26 16:29:09.180 ,0,1,0.,24.0,0.,24.0
1986-01-26 16:29:33.180 ,0,0,0.,24.0,0.,24.0
1986-01-26 16:29:57.180 ,0,1,2.,24.0,0.,24.0
1986-01-26 16:30:21.180 ,0,0,0.,24.0,0.,24.0
1986-01-26 16:30:45.180 ,1,1,0.,24.0,0.,24.0
1986-01-26 16:31:09.180 ,1,0,0.,24.0,0.,24.0
1986-01-26 16:31:33.180 ,2,1,0.,24.0,0.,24.0
1986-01-26 16:31:57.180 ,2,0,0.,24.0,0.,24.0
1986-01-26 16:32:21.180 ,3,1,0.,24.0,0.,24.0
1986-01-26 16:32:45.180 ,3,0,0.,24.0,0.,24.0
1986-01-26 16:33:09.180 ,4,1,0.,24.0,0.,24.0
1986-01-26 16:33:33.180 ,4,0,1.,24.0,0.,24.0
1986-01-26 16:33:57.180 ,5,1,0.,24.0,0.,24.0
1986-01-26 16:34:21.180 ,5,0,0.,24.0,0.,24.0
1986-01-26 16:34:45.180 ,6,1,0.,24.0,0.,24.0
1986-01-26 16:35:09.180 ,6,0,0.,24.0,0.,24.0
1986-01-26 16:35:33.180 ,7,1,0.,24.0,0.,24.0
1986-01-26 16:35:57.180 ,7,0,0.,24.0,0.,24.0
1986-01-26 16:36:21.180 ,7,1,0.,24.0,0.,24.0
1986-01-26 16:36:45.180 ,7,0,0.,24.0,0.,24.0
1986-01-26 16:37:09.180 ,6,1,0.,24.0,0.,24.0
1986-01-26 16:37:33.180 ,6,0,0.,24.0,0.,24.0
1986-01-26 16:37:57.180 ,5,1,1.,24.0,0.,24.0
1986-01-26 16:38:21.180 ,5,0,1.,24.0,0.,24.0
1986-01-26 16:38:45.180 ,4,1,0.,24.0,0.,24.0
1986-01-26 16:39:09.180 ,4,0,1.,24.0,0.,24.0
1986-01-26 16:39:33.180 ,3,1,0.,24.0,0.,24.0
1986-01-26 16:39:57.180 ,3,0,0.,24.0,0.,24.0
1986-01-26 16:40:21.180 ,2,1,1.,24.0,0.,24.0
1986-01-26 16:40:45.180 ,2,0,0.,24.0,0.,24.0
1986-01-26 16:41:09.180 ,1,1,1.,24.0,0.,24.0
1986-01-26 16:41:33.180 ,1,0,0.,24.0,0.,24.0
1986-01-26 16:41:57.180 ,0,1,0.,24.0,0.,24.0
1986-01-26 16:42:21.180 ,0,0,0.,24.0,0.,24.0
1986-01-26 16:42:45.180 ,0,1,0.,24.0,0.,24.0
1986-01-26 16:43:09.180 ,0,0,0.,24.0,0.,24.0
1986-01-26 16:43:33.180 ,1,1,0.,24.0,0.,24.0
1986-01-26 16:43:57.180 ,1,0,0.,24.0,0.,24.0
1986-01-26 16:44:21.180 ,2,1,0.,24.0,0.,24.0
1986-01-26 16:44:45.180 ,2,0,2.,24.0,0.,24.0
1986-01-26 16:45:09.180 ,3,1,1.,24.0,0.,24.0
1986-01-26 16:45:33.180 ,3,0,0.,24.0,0.,24.0
1986-01-26 16:45:57.180 ,4,1,0.,24.0,0.,24.0
1986-01-26 16:46:21.180 ,4,0,0.,24.0,0.,24.0
1986-01-26 16:46:45.180 ,5,1,0.,24.0,0.,24.0
1986-01-26 16:47:09.180 ,5,0,0.,24.0,0.,24.0
1986-01-26 16:47:33.180 ,6,1,0.,24.0,0.,24.0
1986-01-26 16:47:57.180 ,6,0,0.,24.0,0.,24.0
1986-01-26 16:48:21.180 ,7,1,0.,24.0,0.,24.0
1986-01-26 16:48:45.180 ,7,0,0.,24.0,0.,24.0
1986-01-26 16:49:09.180 ,7,1,0.,24.0,0.,24.0
1986-01-26 16:49:33.180 ,7,0,0.,24.0,0.,24.0
1986-01-26 16:49:57.180 ,6,1,0.,24.0,0.,24.0
1986-01-26 16:50:21.180 ,6,0,0.,24.0,0.,24.0
1986-01-26 16:50:45.180 ,5,1,0.,24.0,0.,24.0
1986-01-26 16:51:09.180 ,5,0,0.,24.0,0.,24.0
1986-01-26 16:51:33.180 ,4,1,0.,24.0,0.,24.0
1986-01-26 16:51:57.180 ,4,0,0.,24.0,0.,24.0
1986-01-26 16:52:21.180 ,3,1,0.,24.0,0.,24.0
1986-01-26 16:52:45.180 ,3,0,0.,24.0,0.,24.0
1986-01-26 16:53:09.180 ,2,1,0.,24.0,0.,24.0
1986-01-26 16:53:33.180 ,2,0,0.,24.0,0.,24.0
1986-01-26 16:53:57.180 ,1,1,0.,24.0,0.,24.0
1986-01-26 16:54:21.180 ,1,0,0.,24.0,0.,24.0
1986-01-26 16:54:45.180 ,0,1,0.,24.0,0.,24.0
1986-01-26 16:55:09.180 ,0,0,1.,24.0,0.,24.0
1986-01-26 16:55:33.180 ,0,1,0.,24.0,0.,24.0
1986-01-26 16:55:57.180 ,0,0,1.,24.0,0.,24.0
1986-01-26 16:56:21.180 ,1,1,0.,24.0,0.,24.0
1986-01-26 16:56:45.180 ,1,0,0.,24.0,0.,24.0
1986-01-26 16:57:09.170 ,2,1,0.,24.0,0.,24.0
1986-01-26 16:57:33.170 ,2,0,0.,24.0,0.,24.0
1986-01-26 16:57:57.170 ,3,1,1.,24.0,0.,24.0
1986-01-26 16:58:21.170 ,3,0,0.,24.0,0.,24.0
1986-01-26 16:58:45.170 ,4,1,0.,24.0,0.,24.0
1986-01-26 16:59:09.170 ,4,0,0.,24.0,0.,24.0
1986-01-26 16:59:33.170 ,5,1,0.,24.0,0.,24.0
1986-01-26 16:59:57.170 ,5,0,0.,24.0,0.,24.0
1986-01-26 17:00:21.170 ,6,1,0.,24.0,0.,24.0
1986-01-26 17:00:45.180 ,6,0,0.,24.0,0.,24.0
1986-01-26 17:01:09.180 ,7,1,0.,24.0,0.,24.0
1986-01-26 17:01:33.180 ,7,0,0.,24.0,0.,24.0
1986-01-26 17:01:57.180 ,7,1,0.,24.0,0.,24.0
1986-01-26 17:02:21.180 ,7,0,0.,24.0,0.,24.0
1986-01-26 17:02:45.180 ,6,1,0.,24.0,0.,24.0
1986-01-26 17:03:09.180 ,6,0,0.,24.0,0.,24.0
1986-01-26 17:03:33.180 ,5,1,1.,24.0,0.,24.0
1986-01-26 17:03:57.180 ,5,0,0.,24.0,0.,24.0
1986-01-26 17:04:21.180 ,4,1,1.,24.0,0.,24.0
1986-01-26 17:04:45.180 ,4,0,0.,24.0,0.,24.0
1986-01-26 17:05:09.170 ,3,1,0.,24.0,0.,24.0
1986-01-26 17:05:33.180 ,3,0,0.,24.0,0.,24.0
1986-01-26 17:05:57.180 ,2,1,0.,24.0,0.,24.0
1986-01-26 17:06:21.170 ,2,0,0.,24.0,0.,24.0
1986-01-26 17:06:45.180 ,1,1,0.,24.0,0.,24.0
1986-01-26 17:07:09.170 ,1,0,0.,24.0,0.,24.0
1986-01-26 17:07:33.180 ,0,1,0.,24.0,0.,24.0
1986-01-26 17:07:57.180 ,0,0,0.,24.0,0.,24.0
1986-01-26 17:08:21.180 ,0,1,0.,24.0,0.,24.0
1986-01-26 17:08:45.170 ,0,0,0.,24.0,0.,24.0
1986-01-26 17:09:09.180 ,1,1,0.,24.0,0.,24.0
1986-01-26 17:09:33.180 ,1,0,0.,24.0,0.,24.0
1986-01-26 17:09:57.180 ,2,1,0.,24.0,0.,24.0
1986-01-26 17:10:21.180 ,2,0,0.,24.0,0.,24.0
1986-01-26 17:10:45.180 ,3,1,0.,24.0,0.,24.0
1986-01-26 17:11:09.180 ,3,0,0.,24.0,0.,24.0
1986-01-26 17:11:33.180 ,4,1,0.,24.0,0.,24.0
1986-01-26 17:11:57.180 ,4,0,0.,24.0,0.,24.0
1986-01-26 17:12:21.170 ,5,1,0.,24.0,0.,24.0
1986-01-26 17:12:45.170 ,5,0,0.,24.0,0.,24.0
1986-01-26 17:13:09.170 ,6,1,1.,24.0,0.,24.0
1986-01-26 17:13:33.170 ,6,0,0.,24.0,0.,24.0
1986-01-26 17:13:57.170 ,7,1,1.,24.0,0.,24.0
1986-01-26 17:14:21.170 ,7,0,0.,24.0,0.,24.0
1986-01-26 17:14:45.170 ,7,1,0.,24.0,0.,24.0
1986-01-26 17:15:09.170 ,7,0,1.,24.0,0.,24.0
1986-01-26 17:15:33.170 ,6,1,0.,24.0,0.,24.0
1986-01-26 17:15:57.170 ,6,0,0.,24.0,0.,24.0
1986-01-26 17:16:21.170 ,5,1,0.,24.0,0.,24.0
1986-01-26 17:16:45.170 ,5,0,0.,24.0,0.,24.0
1986-01-26 17:17:09.170 ,4,1,0.,24.0,0.,24.0
1986-01-26 17:17:33.170 ,4,0,0.,24.0,0.,24.0
1986-01-26 17:17:57.170 ,3,1,0.,24.0,0.,24.0
1986-01-26 17:18:21.170 ,3,0,0.,24.0,0.,24.0
1986-01-26 17:18:45.170 ,2,1,0.,24.0,0.,24.0
1986-01-26 17:19:09.170 ,2,0,0.,24.0,0.,24.0
1986-01-26 17:19:33.170 ,1,1,0.,24.0,0.,24.0
1986-01-26 17:19:57.170 ,1,0,0.,24.0,0.,24.0
1986-01-26 17:20:21.170 ,0,1,0.,24.0,0.,24.0
1986-01-26 17:20:45.170 ,0,0,0.,24.0,0.,24.0
1986-01-26 17:21:09.170 ,0,1,0.,24.0,0.,24.0
1986-01-26 17:21:33.170 ,0,0,0.,24.0,0.,24.0
1986-01-26 17:21:57.170 ,1,1,0.,24.0,0.,24.0
1986-01-26 17:22:21.170 ,1,0,0.,24.0,0.,24.0
1986-01-26 17:22:45.170 ,2,1,0.,24.0,0.,24.0
1986-01-26 17:23:09.170 ,2,0,1.,24.0,0.,24.0
1986-01-26 17:23:33.170 ,3,1,0.,24.0,0.,24.0
1986-01-26 17:23:57.170 ,3,0,0.,24.0,0.,24.0
1986-01-26 17:24:21.170 ,4,1,0.,24.0,0.,24.0
1986-01-26 17:24:45.170 ,4,0,0.,24.0,0.,24.0
1986-01-26 17:25:09.170 ,5,1,0.,24.0,0.,24.0
1986-01-26 17:25:33.170 ,5,0,1.,24.0,0.,24.0
1986-01-26 17:25:57.170 ,6,1,0.,24.0,0.,24.0
1986-01-26 17:26:21.170 ,6,0,0.,24.0,0.,24.0
1986-01-26 17:26:45.170 ,7,1,0.,24.0,0.,24.0
1986-01-26 17:27:09.170 ,7,0,0.,24.0,0.,24.0
1986-01-26 17:27:33.170 ,7,1,0.,24.0,0.,24.0
1986-01-26 17:27:57.170 ,7,0,1.,24.0,0.,24.0
1986-01-26 17:28:21.170 ,6,1,0.,24.0,0.,24.0
1986-01-26 17:28:45.170 ,6,0,0.,24.0,0.,24.0
1986-01-26 17:29:09.170 ,5,1,0.,24.0,0.,24.0
1986-01-26 17:29:33.170 ,5,0,0.,24.0,0.,24.0
1986-01-26 17:29:57.170 ,4,1,0.,24.0,0.,24.0
1986-01-26 17:30:21.170 ,4,0,0.,24.0,0.,24.0
1986-01-26 17:30:45.170 ,3,1,0.,24.0,0.,24.0
1986-01-26 17:31:09.170 ,3,0,1.,24.0,0.,24.0
1986-01-26 17:31:33.170 ,2,1,1.,24.0,0.,24.0
1986-01-26 17:31:57.170 ,2,0,0.,24.0,0.,24.0
1986-01-26 17:32:21.170 ,1,1,0.,24.0,0.,24.0
1986-01-26 17:32:45.170 ,1,0,1.,24.0,0.,24.0
1986-01-26 17:33:09.170 ,0,1,0.,24.0,0.,24.0
1986-01-26 17:33:33.170 ,0,0,0.,24.0,0.,24.0
1986-01-26 17:33:57.170 ,0,1,0.,24.0,0.,24.0
1986-01-26 17:34:21.170 ,0,0,0.,24.0,0.,24.0
1986-01-26 17:34:45.170 ,1,1,0.,24.0,0.,24.0
1986-01-26 17:35:09.170 ,1,0,0.,24.0,0.,24.0
1986-01-26 17:35:33.170 ,2,1,0.,24.0,0.,24.0
1986-01-26 17:35:57.170 ,2,0,0.,24.0,0.,24.0
1986-01-26 17:36:21.170 ,3,1,2.,24.0,0.,24.0
1986-01-26 17:36:45.170 ,3,0,0.,24.0,0.,24.0
1986-01-26 17:37:09.170 ,4,1,1.,24.0,0.,24.0
1986-01-26 17:37:33.170 ,4,0,0.,24.0,0.,24.0
1986-01-26 17:37:57.170 ,5,1,0.,24.0,0.,24.0
1986-01-26 17:38:21.170 ,5,0,0.,24.0,0.,24.0
1986-01-26 17:38:45.170 ,6,1,0.,24.0,0.,24.0
1986-01-26 17:39:09.170 ,6,0,0.,24.0,0.,24.0
1986-01-26 17:39:33.170 ,7,1,0.,24.0,0.,24.0
1986-01-26 17:39:57.170 ,7,0,0.,24.0,0.,24.0
1986-01-26 17:40:21.170 ,7,1,0.,24.0,0.,24.0
1986-01-26 17:40:45.170 ,7,0,0.,24.0,0.,24.0
1986-01-26 17:41:09.170 ,6,1,0.,24.0,0.,24.0
1986-01-26 17:41:33.170 ,6,0,0.,24.0,0.,24.0
1986-01-26 17:41:57.170 ,5,1,0.,24.0,0.,24.0
1986-01-26 17:42:21.170 ,5,0,0.,24.0,0.,24.0
1986-01-26 17:42:45.170 ,4,1,1.,24.0,0.,24.0
1986-01-26 17:43:09.170 ,4,0,0.,24.0,0.,24.0
1986-01-26 17:43:33.170 ,3,1,0.,24.0,0.,24.0
1986-01-26 17:43:57.170 ,3,0,0.,24.0,0.,24.0
1986-01-26 17:44:21.170 ,2,1,0.,24.0,0.,24.0
1986-01-26 17:44:45.170 ,2,0,0.,24.0,0.,24.0
1986-01-26 17:45:09.170 ,1,1,0.,24.0,0.,24.0
1986-01-26 17:45:33.170 ,1,0,1.,24.0,0.,24.0
1986-01-26 17:45:57.170 ,0,1,0.,24.0,0.,24.0
1986-01-26 17:46:21.170 ,0,0,0.,24.0,0.,24.0
1986-01-26 17:46:45.170 ,0,1,0.,24.0,0.,24.0
1986-01-26 17:47:09.170 ,0,0,1.,24.0,0.,24.0
1986-01-26 17:47:33.170 ,1,1,0.,24.0,0.,24.0
1986-01-26 17:47:57.170 ,1,0,0.,24.0,0.,24.0
1986-01-26 17:48:21.170 ,2,1,0.,24.0,0.,24.0
1986-01-26 17:48:45.170 ,2,0,0.,24.0,0.,24.0
1986-01-26 17:49:09.170 ,3,1,1.,24.0,0.,24.0
1986-01-26 17:49:33.170 ,3,0,0.,24.0,0.,24.0
1986-01-26 17:49:57.170 ,4,1,0.,24.0,0.,24.0
1986-01-26 17:50:21.170 ,4,0,0.,24.0,0.,24.0
1986-01-26 17:50:45.170 ,5,1,0.,24.0,0.,24.0
1986-01-26 17:51:09.170 ,5,0,0.,24.0,0.,24.0
1986-01-26 17:51:33.170 ,6,1,0.,24.0,0.,24.0
1986-01-26 17:51:57.170 ,6,0,0.,24.0,0.,24.0
1986-01-26 17:52:21.170 ,7,1,1.,24.0,0.,24.0
1986-01-26 17:52:45.170 ,7,0,0.,24.0,0.,24.0
1986-01-26 17:53:09.170 ,7,1,0.,24.0,0.,24.0
1986-01-26 17:53:33.170 ,7,0,0.,24.0,0.,24.0
1986-01-26 17:53:57.170 ,6,1,0.,24.0,0.,24.0
1986-01-26 17:54:21.170 ,6,0,0.,24.0,0.,24.0
1986-01-26 17:54:45.170 ,5,1,0.,24.0,0.,24.0
1986-01-26 17:55:09.170 ,5,0,0.,24.0,0.,24.0
1986-01-26 17:55:33.170 ,4,1,0.,24.0,0.,24.0
1986-01-26 17:55:57.170 ,4,0,0.,24.0,0.,24.0
1986-01-26 17:56:21.170 ,3,1,0.,24.0,0.,24.0
1986-01-26 17:56:45.170 ,3,0,0.,24.0,0.,24.0
1986-01-26 17:57:09.170 ,2,1,0.,24.0,0.,24.0
1986-01-26 17:57:33.170 ,2,0,0.,24.0,0.,24.0
1986-01-26 17:57:57.170 ,1,1,0.,24.0,0.,24.0
1986-01-26 17:58:21.170 ,1,0,0.,24.0,0.,24.0
1986-01-26 17:58:45.170 ,0,1,0.,24.0,0.,24.0
1986-01-26 17:59:09.170 ,0,0,0.,24.0,0.,24.0
1986-01-26 17:59:33.170 ,0,1,1.,24.0,0.,24.0
1986-01-26 17:59:57.170 ,0,0,0.,24.0,0.,24.0
1986-01-26 18:00:21.170 ,1,1,0.,24.0,0.,24.0
